This is the latest recevied weather packets stored in our database for station/object KJ7IVE-13. If no packets are shown the sender has not sent any weather packets the latest 10 day(s).
| Time | Temp. | Humidity | Pressure | Rain* | Wind** | Luminosity | Snow |
|---|---|---|---|---|---|---|---|
| 1777784268 | 14.44° C | 10% | 1017.3 hPa | 0 mm | - | 0 W/m² | - |
| 1777783966 | 15° C | 10% | 1017.5 hPa | 0 mm | - | 0 W/m² | - |
| 1777783661 | 15° C | 10% | 1017.6 hPa | 0 mm | - | 0 W/m² | - |
| 1777783359 | 14.44° C | 10% | 1017.7 hPa | 0 mm | - | 0 W/m² | - |
| 1777783056 | 15° C | 10% | 1017.5 hPa | 0 mm | - | 0 W/m² | - |
| 1777782748 | 15.56° C | 10% | 1017.7 hPa | 0 mm | - | 0 W/m² | - |
| 1777782444 | 15.56° C | 10% | 1017.6 hPa | 0 mm | - | 0 W/m² | - |
| 1777782141 | 15.56° C | 10% | 1018 hPa | 0 mm | - | 0 W/m² | - |
| 1777781837 | 15.56° C | 10% | 1017.6 hPa | 0 mm | - | 0 W/m² | - |
| 1777781535 | 15.56° C | 10% | 1017.5 hPa | 0 mm | - | 0 W/m² | - |
| 1777781232 | 15.56° C | 10% | 1017.6 hPa | 0 mm | - | 0 W/m² | - |
| 1777780929 | 16.11° C | 10% | 1017.7 hPa | 0 mm | - | 0 W/m² | - |
| 1777780626 | 16.67° C | 10% | 1017.5 hPa | 0 mm | - | 0 W/m² | - |
| 1777780323 | 16.67° C | 10% | 1017.7 hPa | 0 mm | - | 0 W/m² | - |
| 1777780021 | 16.67° C | 10% | 1017.6 hPa | 0 mm | - | 0 W/m² | - |
| 1777779717 | 16.67° C | 10% | 1017.6 hPa | 0 mm | - | 0 W/m² | - |
| 1777779415 | 17.22° C | 10% | 1017.4 hPa | 0 mm | - | 0 W/m² | - |
| 1777779112 | 17.22° C | 10% | 1017.7 hPa | 0 mm | - | 0 W/m² | - |
| 1777778810 | 17.22° C | 10% | 1017.5 hPa | 0 mm | - | 0 W/m² | - |
| 1777778509 | 17.78° C | 10% | 1017.4 hPa | 0 mm | - | 0 W/m² | - |
| 1777778206 | 17.78° C | 10% | 1017.5 hPa | 0 mm | - | 0 W/m² | - |
| 1777777904 | 17.78° C | 10% | 1017.4 hPa | 0 mm | - | 0 W/m² | - |
| 1777777599 | 17.78° C | 10% | 1017.4 hPa | 0 mm | - | 0 W/m² | - |
| 1777777296 | 18.33° C | 10% | 1017.2 hPa | 0 mm | - | 0 W/m² | - |
| 1777776992 | 18.33° C | 10% | 1017.3 hPa | 0 mm | - | 0 W/m² | - |
* Rain latest hour (hover to see other rain measurements)
** Current wind speed in m/s (hover to see current wind gust speed)